SCP
-0 -0 0 0 -0 -0 -0 0 0 0 0 -0 0 -0 -0 0 -0 0 -0 -0 -0 -0 -0 -0 -0 -0 -0 -0 -0 -0 -0 -0 -0 -0 -0 -0 -0 -0
0 -0 0 0 0 -0 -0 -0 0 0 0 0 0 0 0 -0 -0 0 -0 -0 -0 -0 -0 -0 -0 -0 -0 -0 -0 -0 -0 -0 -0 -0 -0 -0 -0 -0
0 0 0 0 0 -0 0 0 0 0 0 0 0 0 0 0 -0 0 0 -0 0 -0 -0 -0 -0 -0 -0 -0 -0 -0 -0 -0 -0 -0 -0 -0 -0 -0
0 -0 0 0 0 0 0 0 0 -0 0 0 0 0 0 0 0 -0 -0 -0 0 -0 -0 -0 -0 -0 -0 -0 -0 -0 -0 -0 -0 -0 -0 -0 -0 -0
-0 -0 0 0 0 0 0 0 -0 0 0 0 0 0 0 0 0 0 0 0 -0 -0 0 -0 0 -0 -0 -0 -0 -0 -0 -0 -0 -0 -0 -0 -0 -0
0 -0 0 0 0 0 0 0 0 0 -0 0 0 0 0 0 0 0 0 0 -0 -0 -0 0 0 0 0 0 0 0 0 0 0 0 0 0 0 0
0 0 0 0 0 0 0 0 0 0 -0 0 0 0 0 0 -0 0 0 0 0 0 -0 -0 0 0 0 -0 -0 -0 0 0 0 0 0 0 0 0
0 0 0 0 0 0 0 0 0 0 0 0 0 0 0 0 0 0 0 0 0 0 0 0 -0 -0 0 -0 -0 -0 0 0 0 0 0 0 0 0
0 0 0 0 0 0 0 0 0 0 0 0 0 0 0 0 0 0 0 0 0 0 0 0 0 0 0 0 0 -0 -0 0 0 0 0 0 0 0
0 0 0 0 0 0 0 0 0 0 0 0 0 0 0 0 0 0 0 0 0 0 0 0 0 0 0 0 0 0 -0 0 0 0 0 0 0 0
0 0 0 0 0 0 0 0 0 0 0 0 0 0 0 0 0 0 0 0 0 0 0 0 0 0 0 0 0 0 0 0 0 0 0 0 0 0
0 0 0 0 0 0 0 0 0 0 0 0 0 0 0 0 0 0 0 0 0 0 0 0 0 0 0 0 0 0 0 0 0 0 0 0 0 0
0 0 0 0 0 0 0 0 0 0 0 0 0 0 0 0 0 0 0 0 0 0 0 0 0 0 0 0 0 0 0 0 0 0 0 0 0 0
0 0 0 0 0 0 0 0 0 0 0 0 0 0 0 0 0 0 0 0 0 0 0 0 0 0 0 0 0 0 0 0 0 0 0 0 0 0
0 0 0 0 0 0 0 0 0 0 0 0 0 0 0 0 0 0 0 0 0 0 0 0 0 0 0 0 0 0 0 0 0 0 0 0 0 0
0 0 0 0 0 0 0 0 0 0 0 0 0 0 0 0 0 0 0 0 0 0 0 0 0 0 0 0 0 0 0 0 0 0 0 0 0 0
0 0 0 0 0 0 0 0 0 0 0 0 0 0 0 0 0 0 0 0 0 0 0 0 0 0 0 0 0 0 0 0 0 0 0 0 0 0
0 0 0 0 0 0 0 0 0 0 0 0 0 0 0 0 0 0 0 0 0 0 0 0 0 0 0 0 0 0 0 0 0 0 0 0 0 0
0 0 0 0 0 0 0 0 0 0 0 0 0 0 0 0 0 0 0 0 0 0 0 0 0 0 0 0 0 -0 -0 0 0 0 0 0 0 0
0 0 0 0 0 0 0 0 0 0 0 0 0 0 0 0 0 0 0 0 0 0 0 0 0 0 0 0 0 0 0 0 0 0 0 0 0 0
0 0 0 0 0 0 0 0 0 0 0 0 0 0 0 0 0 0 0 0 0 0 0 0 0 0 0 0 0 0 0 0 0 0 0 0 0 0
0 0 0 0 0 0 0 0 0 0 0 0 0 0 0 0 0 0 0 0 0 0 0 0 0 0 0 0 0 0 0 0 0 0 0 0 0 0
0 0 0 0 0 0 0 0 0 0 0 0 0 0 0 0 0 0 0 0 0 0 0 0 0 0 0 0 0 0 0 0 0 0 0 0 0 -0
Wind_Speed_500mb
20 22 26 24 23 19 22 29 33 33 40 48 46 47 58 29 39 50 49 52 41 40 42 37 38 42 46 48 49 49 48 47 46 43 41 40 40 40
29 28 22 20 23 30 33 26 27 36 47 38 32 25 37 50 49 41 42 49 42 40 42 42 40 40 43 45 46 48 51 51 49 48 47 47 47 46
33 34 33 25 29 34 34 35 33 33 40 35 36 32 23 38 38 55 57 42 40 37 41 39 40 42 41 44 44 44 45 45 45 45 45 46 45 50
37 36 37 28 9 36 32 37 36 38 34 42 38 28 34 36 21 27 64 46 32 28 38 33 35 38 39 41 45 48 49 47 46 47 46 46 46 46
32 30 40 26 33 14 18 28 34 32 29 33 33 25 19 25 23 21 31 36 41 24 31 49 43 35 38 44 47 48 50 54 55 53 54 53 52 52
37 35 30 25 22 19 26 28 31 36 27 19 24 26 31 38 39 38 32 41 41 48 37 34 43 41 40 41 45 52 56 60 63 62 59 58 59 58
20 23 20 18 17 21 26 28 26 28 18 18 28 31 29 26 30 25 31 30 41 54 52 43 32 42 43 46 56 59 60 58 55 55 63 67 67 66
16 17 13 13 13 15 22 32 31 32 30 32 33 24 20 16 21 14 16 21 34 37 23 51 44 33 36 73 59 58 57 50 55 58 55 52 64 73
9 8 9 11 12 10 8 8 9 12 17 22 28 24 24 24 21 14 12 20 24 21 37 54 48 47 30 36 32 66 59 27 35 36 35 39 45 54
14 9 8 8 6 10 11 14 13 12 10 10 12 13 16 19 20 20 21 21 24 23 24 32 34 37 35 40 41 40 37 28 38 41 41 43 49 52
14 9 10 9 7 8 10 9 13 13 13 13 15 16 18 19 19 17 18 23 27 26 20 18 20 27 26 25 19 13 24 28 32 37 43 46 50 55
17 19 9 8 7 7 9 8 5 12 15 20 25 17 12 14 16 19 22 24 26 22 23 35 35 33 37 33 24 25 28 31 28 30 31 39 46 52
8 14 20 20 21 17 16 15 19 20 22 23 12 9 10 15 16 20 26 30 33 22 25 25 30 24 22 33 38 35 34 42 45 37 34 40 47 54
7 16 20 21 23 22 18 17 13 16 14 16 13 12 14 24 27 22 23 28 23 24 30 31 36 36 37 46 51 51 43 35 35 36 42 49 53 56
16 17 16 22 25 28 23 15 11 8 7 6 9 11 11 19 24 26 26 24 24 19 19 16 27 31 34 32 37 42 47 50 32 27 39 34 37 42
11 24 24 23 24 21 23 24 20 17 16 14 14 15 14 18 19 28 32 29 35 35 33 24 22 29 37 35 35 42 43 42 35 37 44 50 45 35
15 15 13 10 10 12 15 19 23 20 14 17 17 19 20 21 23 29 24 30 30 34 41 36 37 43 42 35 38 45 42 32 38 48 53 54 58 62
17 10 10 9 9 10 11 11 17 24 24 15 16 19 23 25 29 26 27 29 32 35 39 48 53 45 50 40 27 30 45 51 59 52 47 48 49 49
14 8 7 7 9 9 11 13 16 21 19 24 23 18 22 24 25 28 29 28 32 36 41 37 43 43 42 49 61 53 67 49 37 57 47 48 55 57
7 6 5 9 10 11 13 15 17 24 14 29 23 16 20 25 28 31 33 36 39 41 40 36 36 40 50 58 65 65 42 50 53 56 61 57 56 61
7 7 11 12 15 17 18 23 21 25 26 27 20 21 26 26 30 33 36 36 38 39 41 43 43 45 47 47 54 62 53 44 49 53 58 57 59 60
8 6 12 13 13 19 25 23 24 26 26 23 25 24 24 29 34 38 38 39 39 43 45 46 44 44 45 48 57 57 60 58 55 45 46 43 37 37
11 12 16 15 17 21 23 24 24 25 24 24 22 24 27 32 35 36 37 41 42 44 45 45 48 49 47 53 52 52 60 58 66 52 50 31 42 55
Wind_Direction_500mb
263 262 248 241 258 267 266 263 250 258 256 268 269 275 279 245 219 233 232 247 248 243 234 229 230 231 233 235 235 235 236 237 236 237 238 237 238 237
259 268 266 256 249 269 271 271 264 269 273 287 287 263 240 271 274 222 220 242 250 242 237 230 231 233 233 234 235 235 236 238 239 242 244 244 242 240
276 261 264 261 249 240 253 260 256 264 271 289 299 299 248 251 307 243 257 244 243 246 244 236 235 237 239 238 237 235 233 234 237 239 240 241 245 243
283 279 265 270 298 265 262 259 272 257 272 289 293 290 290 293 269 222 238 224 254 250 246 244 240 242 243 243 243 243 242 240 238 238 240 242 244 244
304 275 286 258 262 316 257 254 261 273 273 292 304 300 278 290 302 256 248 235 237 280 261 262 247 246 248 247 244 244 247 249 249 248 248 247 247 248
275 278 275 272 266 274 277 274 259 263 293 307 303 303 308 301 281 267 267 256 258 243 283 275 256 255 253 248 247 246 248 249 250 251 251 252 252 252
274 274 278 281 277 276 271 263 252 270 269 269 293 305 318 338 336 275 287 284 262 258 274 287 278 259 247 250 253 242 249 252 249 249 251 251 253 253
278 265 287 291 294 295 259 251 251 268 269 273 286 305 323 347 353 352 277 297 277 238 277 309 312 324 268 256 270 247 259 264 257 253 258 262 259 257
299 319 313 321 346 2 342 320 298 300 301 284 281 288 293 316 323 322 286 277 287 275 281 293 292 289 303 289 287 263 250 254 266 262 259 268 273 270
298 289 305 319 334 4 346 353 348 351 346 338 332 328 321 331 333 329 317 312 300 299 297 298 307 303 294 288 286 278 271 260 274 272 273 274 278 279
15 349 314 325 332 317 311 313 339 8 19 15 358 345 345 342 340 327 326 323 328 337 335 341 336 325 318 315 321 341 320 313 310 299 286 280 278 275
4 8 19 30 18 343 332 333 310 339 21 41 43 28 4 346 340 352 345 348 343 345 329 330 328 332 323 319 303 302 306 298 293 289 289 285 285 284
324 44 62 61 54 47 46 54 60 65 53 29 44 50 347 329 318 325 324 327 324 327 328 339 334 330 310 304 301 310 304 293 294 292 293 285 285 285
8 62 60 60 56 50 58 75 82 69 48 31 27 360 344 354 337 2 349 330 337 328 325 325 324 320 315 310 311 308 301 293 296 294 291 290 290 293
64 39 45 53 44 42 37 29 22 98 92 81 27 355 339 327 329 328 316 324 326 331 345 338 331 327 325 324 318 320 317 318 322 319 317 313 300 298
73 56 46 52 48 29 19 22 32 50 42 42 24 356 349 344 353 329 336 355 342 342 333 309 309 320 323 319 316 315 316 314 318 302 292 292 289 284
82 71 65 69 43 42 30 15 5 2 33 26 7 357 350 343 337 329 351 333 330 332 338 332 322 313 316 313 318 318 322 310 304 304 308 302 292 293
93 77 66 51 34 25 22 13 352 343 4 8 359 358 347 344 336 345 340 337 337 332 327 321 321 333 330 323 327 323 306 305 305 314 323 322 318 322
85 63 38 18 360 353 348 344 338 335 343 341 352 345 335 334 338 338 332 335 328 322 318 325 332 321 319 314 304 298 304 306 315 322 321 317 309 308
53 11 7 349 337 329 326 315 321 324 319 321 332 320 324 330 334 331 334 329 326 325 328 327 324 322 322 319 318 322 331 324 317 313 318 308 303 305
347 336 327 320 305 314 312 316 317 324 317 320 321 305 326 329 322 327 324 325 323 324 322 322 319 315 313 305 313 320 317 317 313 309 309 307 303 313
311 307 300 293 303 307 308 310 309 313 316 318 309 313 318 313 320 321 322 322 322 320 318 316 321 323 319 310 308 318 318 320 319 303 304 311 297 319
315 310 305 319 320 311 310 307 306 308 314 308 299 300 304 313 312 314 317 313 318 318 319 322 321 322 319 317 313 315 315 315 319 318 308 306 311 291
Wind_Speed_850mb
20 22 26 24 23 19 22 29 33 33 40 48 46 47 58 29 39 50 49 52 41 40 42 37 38 42 46 48 49 49 48 47 46 43 41 40 40 40
29 28 22 20 23 30 33 26 27 36 47 38 32 25 37 50 49 41 42 49 42 40 42 42 40 40 43 45 46 48 51 51 49 48 47 47 47 46
33 34 33 25 29 34 34 35 33 33 40 35 36 32 23 38 38 55 57 42 40 37 41 39 40 42 41 44 44 44 45 45 45 45 45 46 45 50
37 36 37 28 9 36 32 37 36 38 34 42 38 28 34 36 21 27 64 46 32 28 38 33 35 38 39 41 45 48 49 47 46 47 46 46 46 46
32 30 40 26 33 14 18 28 34 32 29 33 33 25 19 25 23 21 31 36 41 24 31 49 43 35 38 44 47 48 50 54 55 53 54 53 52 52
37 35 30 25 22 19 26 28 31 36 27 19 24 26 31 38 39 38 32 41 41 48 37 34 43 41 40 41 45 52 56 60 63 62 59 58 59 58
20 23 20 18 17 21 26 28 26 28 18 18 28 31 29 26 30 25 31 30 41 54 52 43 32 42 43 46 56 59 60 58 55 55 63 67 67 66
16 17 13 13 13 15 22 32 31 32 30 32 33 24 20 16 21 14 16 21 34 37 23 51 44 33 36 73 59 58 57 50 55 58 55 52 64 73
9 8 9 11 12 10 8 8 9 12 17 22 28 24 24 24 21 14 12 20 24 21 37 54 48 47 30 36 32 66 59 27 35 36 35 39 45 54
14 9 8 8 6 10 11 14 13 12 10 10 12 13 16 19 20 20 21 21 24 23 24 32 34 37 35 40 41 40 37 28 38 41 41 43 49 52
14 9 10 9 7 8 10 9 13 13 13 13 15 16 18 19 19 17 18 23 27 26 20 18 20 27 26 25 19 13 24 28 32 37 43 46 50 55
17 19 9 8 7 7 9 8 5 12 15 20 25 17 12 14 16 19 22 24 26 22 23 35 35 33 37 33 24 25 28 31 28 30 31 39 46 52
8 14 20 20 21 17 16 15 19 20 22 23 12 9 10 15 16 20 26 30 33 22 25 25 30 24 22 33 38 35 34 42 45 37 34 40 47 54
7 16 20 21 23 22 18 17 13 16 14 16 13 12 14 24 27 22 23 28 23 24 30 31 36 36 37 46 51 51 43 35 35 36 42 49 53 56
16 17 16 22 25 28 23 15 11 8 7 6 9 11 11 19 24 26 26 24 24 19 19 16 27 31 34 32 37 42 47 50 32 27 39 34 37 42
11 24 24 23 24 21 23 24 20 17 16 14 14 15 14 18 19 28 32 29 35 35 33 24 22 29 37 35 35 42 43 42 35 37 44 50 45 35
15 15 13 10 10 12 15 19 23 20 14 17 17 19 20 21 23 29 24 30 30 34 41 36 37 43 42 35 38 45 42 32 38 48 53 54 58 62
17 10 10 9 9 10 11 11 17 24 24 15 16 19 23 25 29 26 27 29 32 35 39 48 53 45 50 40 27 30 45 51 59 52 47 48 49 49
14 8 7 7 9 9 11 13 16 21 19 24 23 18 22 24 25 28 29 28 32 36 41 37 43 43 42 49 61 53 67 49 37 57 47 48 55 57
7 6 5 9 10 11 13 15 17 24 14 29 23 16 20 25 28 31 33 36 39 41 40 36 36 40 50 58 65 65 42 50 53 56 61 57 56 61
7 7 11 12 15 17 18 23 21 25 26 27 20 21 26 26 30 33 36 36 38 39 41 43 43 45 47 47 54 62 53 44 49 53 58 57 59 60
8 6 12 13 13 19 25 23 24 26 26 23 25 24 24 29 34 38 38 39 39 43 45 46 44 44 45 48 57 57 60 58 55 45 46 43 37 37
11 12 16 15 17 21 23 24 24 25 24 24 22 24 27 32 35 36 37 41 42 44 45 45 48 49 47 53 52 52 60 58 66 52 50 31 42 55
Wind_Direction_850mb
263 262 248 241 258 267 266 263 250 258 256 268 269 275 279 245 219 233 232 247 248 243 234 229 230 231 233 235 235 235 236 237 236 237 238 237 238 237
259 268 266 256 249 269 271 271 264 269 273 287 287 263 240 271 274 222 220 242 250 242 237 230 231 233 233 234 235 235 236 238 239 242 244 244 242 240
276 261 264 261 249 240 253 260 256 264 271 289 299 299 248 251 307 243 257 244 243 246 244 236 235 237 239 238 237 235 233 234 237 239 240 241 245 243
283 279 265 270 298 265 262 259 272 257 272 289 293 290 290 293 269 222 238 224 254 250 246 244 240 242 243 243 243 243 242 240 238 238 240 242 244 244
304 275 286 258 262 316 257 254 261 273 273 292 304 300 278 290 302 256 248 235 237 280 261 262 247 246 248 247 244 244 247 249 249 248 248 247 247 248
275 278 275 272 266 274 277 274 259 263 293 307 303 303 308 301 281 267 267 256 258 243 283 275 256 255 253 248 247 246 248 249 250 251 251 252 252 252
274 274 278 281 277 276 271 263 252 270 269 269 293 305 318 338 336 275 287 284 262 258 274 287 278 259 247 250 253 242 249 252 249 249 251 251 253 253
278 265 287 291 294 295 259 251 251 268 269 273 286 305 323 347 353 352 277 297 277 238 277 309 312 324 268 256 270 247 259 264 257 253 258 262 259 257
299 319 313 321 346 2 342 320 298 300 301 284 281 288 293 316 323 322 286 277 287 275 281 293 292 289 303 289 287 263 250 254 266 262 259 268 273 270
298 289 305 319 334 4 346 353 348 351 346 338 332 328 321 331 333 329 317 312 300 299 297 298 307 303 294 288 286 278 271 260 274 272 273 274 278 279
15 349 314 325 332 317 311 313 339 8 19 15 358 345 345 342 340 327 326 323 328 337 335 341 336 325 318 315 321 341 320 313 310 299 286 280 278 275
4 8 19 30 18 343 332 333 310 339 21 41 43 28 4 346 340 352 345 348 343 345 329 330 328 332 323 319 303 302 306 298 293 289 289 285 285 284
324 44 62 61 54 47 46 54 60 65 53 29 44 50 347 329 318 325 324 327 324 327 328 339 334 330 310 304 301 310 304 293 294 292 293 285 285 285
8 62 60 60 56 50 58 75 82 69 48 31 27 360 344 354 337 2 349 330 337 328 325 325 324 320 315 310 311 308 301 293 296 294 291 290 290 293
64 39 45 53 44 42 37 29 22 98 92 81 27 355 339 327 329 328 316 324 326 331 345 338 331 327 325 324 318 320 317 318 322 319 317 313 300 298
73 56 46 52 48 29 19 22 32 50 42 42 24 356 349 344 353 329 336 355 342 342 333 309 309 320 323 319 316 315 316 314 318 302 292 292 289 284
82 71 65 69 43 42 30 15 5 2 33 26 7 357 350 343 337 329 351 333 330 332 338 332 322 313 316 313 318 318 322 310 304 304 308 302 292 293
93 77 66 51 34 25 22 13 352 343 4 8 359 358 347 344 336 345 340 337 337 332 327 321 321 333 330 323 327 323 306 305 305 314 323 322 318 322
85 63 38 18 360 353 348 344 338 335 343 341 352 345 335 334 338 338 332 335 328 322 318 325 332 321 319 314 304 298 304 306 315 322 321 317 309 308
53 11 7 349 337 329 326 315 321 324 319 321 332 320 324 330 334 331 334 329 326 325 328 327 324 322 322 319 318 322 331 324 317 313 318 308 303 305
347 336 327 320 305 314 312 316 317 324 317 320 321 305 326 329 322 327 324 325 323 324 322 322 319 315 313 305 313 320 317 317 313 309 309 307 303 313
311 307 300 293 303 307 308 310 309 313 316 318 309 313 318 313 320 321 322 322 322 320 318 316 321 323 319 310 308 318 318 320 319 303 304 311 297 319
315 310 305 319 320 311 310 307 306 308 314 308 299 300 304 313 312 314 317 313 318 318 319 322 321 322 319 317 313 315 315 315 319 318 308 306 311 291